Louisville, KY

11:46 AM EDT on June 28, 2017 (GMT -0400)
Louisville International-Standiford

Weather History for KSDF - February, 2014

Change the Weather History Date:

Sunday, February 23, 2014

  Actual Average Record
Temperature  
Mean Temperature 36 °F 41 °F  
Max Temperature 44 °F 50 °F 76 °F (1996)
Min Temperature 28 °F 32 °F 5 °F (1963)
Degree Days  
Heating Degree Days 29 24  
Month to date heating degree days 715 616  
Since 1 July heating degree days 3475 3125  
Cooling Degree Days 0 0  
Month to date cooling degree days 0 0  
Year to date cooling degree days 0 0  
Moisture  
Dew Point 30 °F    
Average Humidity 74    
Maximum Humidity 89    
Minimum Humidity 58    
Precipitation  
Precipitation 0.06 in 0.11 in 4.78 in (1909)
Month to date precipitation 3.74 2.60  
Year to date precipitation 6.15 5.84  
Snow  
Snow 0.40 in 0.10 in 3.80 in (1907)
Month to date snowfall 7.5 3.9  
Since 1 July snowfall 21.6 10.4  
Snow Depth 0.00 in    
Sea Level Pressure  
Sea Level Pressure 30.12 in    
Wind  
Wind Speed 9 mph (North)    
Max Wind Speed 20 mph    
Max Gust Speed 25 mph    
Visibility 8 miles    
Events Fog , Rain , Snow    
T = Trace of Precipitation, MM = Missing Value Source: NWS Daily Summary

Daily Weather History Graph

Daily Weather History Graph

Search for Another Location

Airport or City:

Trip Planner

Search our weather history database for the weather conditions in past years. The results will help you decide how hot, cold, wet, or windy it might be!

Date:

Astronomy

Feb. 23, 2014 Rise Set
Actual Time 7:23 AM EST 6:30 PM EST
Civil Twilight 6:56 AM EST 6:56 PM EST
Nautical Twilight 6:25 AM EST 7:27 PM EST
Astronomical Twilight 5:55 AM EST 7:58 PM EST
Moon 2:17 AM EST (2/23) 12:34 PM EST (2/23)
Length of Visible Light 12h 00m
Length of Day
11h 07m
Last Quarter, 39% of the Moon is Illuminated
Feb 23
Last Quarter
Mar 1
New
Mar 8
First Quarter
Mar 16
Full
Mar 23
Last Quarter

Hourly Weather History & Observations

Time (EST) Temp. Windchill Dew Point Humidity Pressure Visibility Wind Dir Wind Speed Gust Speed Precip Events Conditions
12:56 AM 42.1 °F 35.7 °F 30.0 °F 62% 30.02 in 10.0 mi North 11.5 mph - N/A   Scattered Clouds
1:56 AM 39.9 °F 35.8 °F 30.0 °F 68% 30.03 in 10.0 mi North 5.8 mph - N/A   Scattered Clouds
2:56 AM 37.9 °F - 28.9 °F 70% 30.04 in 10.0 mi Calm Calm - N/A   Partly Cloudy
3:56 AM 37.0 °F 34.5 °F 28.9 °F 73% 30.03 in 10.0 mi NNW 3.5 mph - N/A   Scattered Clouds
4:56 AM 34.0 °F 28.8 °F 28.9 °F 82% 30.04 in 10.0 mi North 5.8 mph - N/A   Scattered Clouds
5:56 AM 36.0 °F - 28.9 °F 76% 30.03 in 10.0 mi Calm Calm - N/A   Mostly Cloudy
6:56 AM 33.1 °F 26.9 °F 28.0 °F 82% 30.04 in 10.0 mi North 6.9 mph - N/A   Scattered Clouds
7:56 AM 36.0 °F 32.1 °F 30.0 °F 79% 30.06 in 10.0 mi North 4.6 mph - N/A   Partly Cloudy
8:56 AM 37.9 °F 30.5 °F 30.9 °F 76% 30.09 in 10.0 mi North 11.5 mph - N/A   Mostly Cloudy
9:56 AM 42.1 °F 36.1 °F 33.1 °F 70% 30.11 in 10.0 mi North 10.4 mph - N/A   Mostly Cloudy
10:56 AM 43.0 °F 36.4 °F 33.1 °F 68% 30.12 in 10.0 mi NNE 12.7 mph 21.9 mph N/A   Mostly Cloudy
11:03 AM 42.8 °F 35.1 °F 33.8 °F 70% 30.12 in 10.0 mi North 16.1 mph 21.9 mph N/A   Overcast
11:56 AM 42.1 °F 34.5 °F 34.0 °F 73% 30.13 in 10.0 mi North 15.0 mph - N/A   Overcast
12:51 PM 44.6 °F 38.4 °F 33.8 °F 66% 30.12 in 10.0 mi North 12.7 mph - N/A   Mostly Cloudy
12:56 PM 43.0 °F 36.8 °F 34.0 °F 71% 30.12 in 10.0 mi North 11.5 mph - N/A   Mostly Cloudy
1:56 PM 41.0 °F 33.1 °F 33.1 °F 73% 30.11 in 10.0 mi North 15.0 mph 25.3 mph 0.00 in Rain Light Rain
2:56 PM 39.9 °F 31.1 °F 33.1 °F 77% 30.12 in 10.0 mi North 17.3 mph - 0.00 in   Overcast
3:04 PM 39.2 °F 30.5 °F 33.8 °F 81% 30.12 in 10.0 mi NNW 16.1 mph - N/A   Overcast
3:12 PM 39.2 °F 30.2 °F 33.8 °F 81% 30.13 in 10.0 mi NNW 17.3 mph - 0.00 in Rain Light Rain
3:54 PM 35.6 °F 27.1 °F 33.8 °F 93% 30.14 in 2.0 mi North 12.7 mph - 0.02 in Rain , Snow Light Rain
3:56 PM 35.1 °F 26.4 °F 33.1 °F 92% 30.15 in 1.8 mi North 12.7 mph - 0.02 in Snow Light Snow
4:03 PM 33.8 °F 25.3 °F 32.0 °F 93% 30.13 in 0.5 mi North 11.5 mph - 0.01 in Fog , Snow Snow
4:08 PM 33.8 °F 27.7 °F 32.0 °F 93% 30.14 in 0.5 mi North 6.9 mph - 0.02 in Fog , Snow Snow
4:33 PM 33.8 °F 25.3 °F 32.0 °F 93% 30.13 in 0.8 mi North 11.5 mph - 0.04 in Snow Light Snow
4:36 PM 33.8 °F 26.4 °F 32.0 °F 93% 30.14 in 1.0 mi North 9.2 mph - 0.04 in Snow Light Snow
4:46 PM 33.8 °F 27.0 °F 32.0 °F 93% 30.15 in 3.0 mi NNW 8.1 mph - 0.04 in Snow Light Snow
4:56 PM 34.0 °F 28.8 °F 30.9 °F 89% 30.17 in 8.0 mi North 5.8 mph - 0.04 in   Overcast
5:25 PM 35.6 °F 31.7 °F 30.2 °F 81% 30.14 in 6.0 mi NNE 4.6 mph - 0.00 in Snow Light Snow
5:56 PM 35.1 °F 29.3 °F 30.9 °F 85% 30.17 in 10.0 mi NNW 6.9 mph - 0.00 in   Mostly Cloudy
6:56 PM 34.0 °F 28.0 °F 30.0 °F 85% 30.18 in 10.0 mi North 6.9 mph - N/A   Mostly Cloudy
7:56 PM 33.1 °F 27.7 °F 30.0 °F 89% 30.19 in 10.0 mi NNW 5.8 mph - N/A   Partly Cloudy
8:56 PM 33.1 °F 25.5 °F 21.0 °F 61% 30.21 in 10.0 mi North 9.2 mph - N/A   Clear
9:56 PM 30.9 °F 22.2 °F 19.0 °F 61% 30.23 in 10.0 mi North 10.4 mph - N/A   Clear
10:56 PM 30.0 °F 22.4 °F 17.1 °F 59% 30.25 in 10.0 mi North 8.1 mph - N/A   Clear
11:56 PM 28.0 °F 20.8 °F 15.1 °F 58% 30.25 in 10.0 mi North 6.9 mph - N/A   Clear